This is the latest recevied weather packets stored in our database for station/object NEWPRT. If no packets are shown the sender has not sent any weather packets the latest 10 day(s).
| Time | Temp. | Humidity | Pressure | Rain* | Wind** | Luminosity | Snow |
|---|---|---|---|---|---|---|---|
| 1778191565 | - | 48% | 1020.3 hPa | 0 mm | - | - | - |
| 1778191242 | - | 49% | 1020.5 hPa | 0 mm | - | - | - |
| 1778190919 | - | 50% | 1020.8 hPa | 0 mm | - | - | - |
| 1778190596 | - | 50% | 1020.6 hPa | 0 mm | - | - | - |
| 1778190273 | - | 49% | 1021 hPa | 0 mm | - | - | - |
| 1778189949 | - | 48% | 1020.6 hPa | 0 mm | - | - | - |
| 1778189627 | - | 50% | 1020.6 hPa | 0 mm | - | - | - |
| 1778189304 | - | 48% | 1020.9 hPa | 0 mm | - | - | - |
| 1778188980 | - | 47% | 1020.6 hPa | 0 mm | - | - | - |
| 1778188658 | - | 47% | 1020.6 hPa | 0 mm | - | - | - |
| 1778188335 | - | 47% | 1020.8 hPa | 0 mm | - | - | - |
| 1778188012 | - | 48% | 1020.9 hPa | 0 mm | - | - | - |
| 1778187688 | - | 47% | 1020.5 hPa | 0 mm | - | - | - |
| 1778187365 | - | 47% | 1020.6 hPa | 0 mm | - | - | - |
| 1778187043 | - | 45% | 1020.5 hPa | 0 mm | - | - | - |
| 1778186720 | - | 46% | 1020.4 hPa | 0 mm | - | - | - |
| 1778186396 | - | 47% | 1020.5 hPa | 0 mm | - | - | - |
| 1778186073 | - | 47% | 1020.5 hPa | 0 mm | - | - | - |
| 1778185750 | - | 46% | 1020.6 hPa | 0 mm | - | - | - |
| 1778185430 | - | 44% | 1020.8 hPa | 0 mm | - | - | - |
| 1778185104 | - | 46% | 1020.5 hPa | 0 mm | - | - | - |
| 1778184781 | - | 47% | 1020.6 hPa | 0 mm | - | - | - |
| 1778184459 | - | 44% | 1020.8 hPa | 0 mm | - | - | - |
| 1778184135 | - | 46% | 1020.8 hPa | 0 mm | - | - | - |
| 1778183812 | - | 46% | 1020.8 hPa | 0 mm | - | - | - |
* Rain latest hour (hover to see other rain measurements)
** Current wind speed in m/s (hover to see current wind gust speed)